DW4207 Weather Reports


time (UTC)temp
C
wind
direction
speed
KPH
gust
KPH
rain 1hr
cm
rain 24hr
cm
rain mn
cm
humidity
%
barometer
mb
20260503200003 15 159 12.9 27.4 0.00 0.00 0.00 48 1013.7
20260503195003 15 191 8.0 19.3 0.00 0.00 0.00 51 1014.0
20260503194003 15 203 9.7 22.5 0.00 0.00 0.00 51 1014.4
20260503193003 14 209 8.0 20.9 0.00 0.00 0.00 51 1014.9
20260503192025 14 215 9.7 17.7 0.00 0.00 0.00 51 1015.3
20260503191003 14 202 9.7 19.3 0.00 0.00 0.00 50 1015.1
20260503190003 14 215 9.7 22.5 0.00 0.00 0.00 52 1015.1
20260503185004 14 178 9.7 27.4 0.00 0.00 0.00 51 1015.2
20260503184024 14 169 6.4 17.7 0.00 0.00 0.00 51 1014.9
20260503183004 15 201 9.7 24.1 0.00 0.00 0.00 52 1015.1
20260503182004 13 196 9.7 22.5 0.00 0.00 0.00 52 1015.4
20260503181003 13 173 8.0 19.3 0.00 0.00 0.00 52 1015.8
20260503180004 13 192 11.3 24.1 0.00 0.00 0.00 52 1016.2
20260503175003 13 185 8.0 20.9 0.00 0.00 0.00 53 1016.2
20260503174003 13 193 9.7 22.5 0.00 0.00 0.00 51 1016.4
20260503173003 13 197 11.3 22.5 0.00 0.00 0.00 51 1016.6
20260503172003 14 185 12.9 30.6 0.00 0.00 0.00 49 1016.7
20260503171003 14 194 11.3 32.2 0.00 0.00 0.00 52 1016.9
20260503151003 13 195 11.3 27.4 0.00 0.00 0.00 48 1018.1
20260503131003 10 212 8.0 17.7 0.00 0.00 0.00 55 1018.5
20260503081003 2 175 0.0 1.6 0.00 0.00 0.00 79 1018.0
20260503072024 2 213 0.0 1.6 0.00 0.00 0.00 83 1018.0
20260503071003 2 0 0.0 1.6 0.00 0.00 0.00 83 1018.0
20260503055024 1 0 0.0 0.0 0.00 0.00 0.00 89 1018.4
20260503054003 1 0 0.0 0.0 0.00 0.00 0.00 88 1018.5
20260503053003 1 0 0.0 0.0 0.00 0.00 0.00 88 1018.5
20260503052003 1 0 0.0 0.0 0.00 0.00 0.00 88 1018.5
20260503051024 1 0 0.0 0.0 0.00 0.00 0.00 88 1018.6
20260503050003 1 0 0.0 0.0 0.00 0.00 0.00 88 1018.6
20260503045003 1 0 0.0 0.0 0.00 0.00 0.00 87 1018.6
20260503044024 2 0 0.0 0.0 0.00 0.00 0.00 87 1018.6
20260503043024 2 0 0.0 0.0 0.00 0.00 0.00 87 1018.6
20260503042003 2 0 0.0 0.0 0.00 0.00 0.00 87 1018.6
20260503041004 2 0 0.0 0.0 0.00 0.00 0.00 87 1018.6
20260503040004 2 0 0.0 0.0 0.00 0.00 0.00 86 1018.5
20260503035003 2 0 0.0 0.0 0.00 0.00 0.00 86 1018.6
20260503034003 2 0 0.0 0.0 0.00 0.00 0.00 85 1018.5
20260503033003 2 0 0.0 0.0 0.00 0.00 0.00 84 1018.5
20260503032003 3 0 0.0 0.0 0.00 0.00 0.00 84 1018.6
20260503031003 2 0 0.0 0.0 0.00 0.00 0.00 84 1018.6
20260503030024 3 0 0.0 0.0 0.00 0.00 0.00 82 1018.6
20260503025003 3 0 0.0 0.0 0.00 0.00 0.00 82 1018.7
20260503024003 3 0 0.0 0.0 0.00 0.00 0.00 79 1018.6
20260503023024 3 0 0.0 0.0 0.00 0.00 0.00 80 1018.5
20260503022003 4 0 0.0 0.0 0.00 0.00 0.00 78 1018.5
20260503021003 4 0 0.0 0.0 0.00 0.00 0.00 75 1018.4
20260503020003 4 0 0.0 0.0 0.00 0.00 0.00 74 1018.3
20260503015003 5 306 0.0 3.2 0.00 0.00 0.00 71 1018.2
20260503014003 5 306 0.0 1.6 0.00 0.00 0.00 71 1018.1
20260503013003 6 306 0.0 3.2 0.00 0.00 0.00 68 1018.1
20260503012003 5 319 0.0 3.2 0.00 0.00 0.00 67 1018.0
20260503011024 6 0 0.0 0.0 0.00 0.00 0.00 61 1017.9
20260503010003 7 0 0.0 0.0 0.00 0.00 0.00 56 1017.8
20260503005003 7 0 0.0 1.6 0.00 0.00 0.00 54 1017.8
20260503004003 8 351 0.0 1.6 0.00 0.00 0.00 48 1017.8
20260503003003 8 0 0.0 0.0 0.00 0.00 0.00 48 1017.8
20260503002003 9 336 1.6 4.8 0.00 0.00 0.00 45 1017.6
20260503001003 9 342 3.2 8.0 0.00 0.00 0.00 43 1017.6
20260503000003 10 334 3.2 9.7 0.00 0.00 0.00 43 1017.5
20260502235003 10 349 1.6 8.0 0.00 0.00 0.00 44 1017.4
20260502234003 10 341 4.8 16.1 0.00 0.00 0.00 40 1017.2
20260502233003 10 350 6.4 16.1 0.00 0.00 0.00 43 1017.0
20260502232003 11 352 6.4 12.9 0.00 0.00 0.00 41 1017.0
20260502231024 11 350 6.4 14.5 0.00 0.00 0.00 41 1016.9
20260502230003 11 338 3.2 9.7 0.00 0.00 0.00 41 1017.7
20260502225003 11 328 1.6 6.4 0.00 0.00 0.00 44 1017.7
20260502224003 10 335 4.8 8.0 0.00 0.00 0.00 41 1017.8
20260502223003 10 332 4.8 12.9 0.00 0.00 0.00 43 1017.9
20260502222003 10 342 6.4 19.3 0.00 0.00 0.00 41 1017.8
20260502221024 11 360 6.4 17.7 0.00 0.00 0.00 41 1017.8
20260502220003 11 347 6.4 20.9 0.00 0.00 0.00 41 1017.7
20260502215003 11 355 8.0 17.7 0.00 0.00 0.00 41 1017.7
20260502214003 11 337 6.4 22.5 0.00 0.00 0.00 42 1017.7
20260502213024 10 350 4.8 14.5 0.00 0.00 0.00 43 1017.8
20260502212024 10 335 6.4 14.5 0.00 0.00 0.00 44 1017.7
20260502211003 11 347 8.0 20.9 0.00 0.00 0.00 44 1017.7
20260502210003 11 342 8.0 19.3 0.00 0.00 0.00 40 1017.7
20260502205003 11 356 8.0 17.7 0.00 0.00 0.00 46 1017.7
20260502204003 11 358 6.4 17.7 0.00 0.00 0.00 50 1017.8
20260502203024 11 346 4.8 19.3 0.00 0.00 0.00 43 1017.9
20260502202003 11 342 4.8 16.1 0.00 0.00 0.00 52 1018.0
20260502201003 10 346 8.0 19.3 0.00 0.00 0.00 45 1018.1